FW2218 Weather Reports


Display with metric or nautical units.
time (UTC)temp
F
wind
direction
speed
MPH
gust
MPH
rain 1hr
in
rain 24hr
in
rain mn
in
humidity
%
barometer
mb
20260507004530 70 279 11.0 21.0 0.00 0.00 0.00 47 1011.0
20260507003031 70 277 10.0 24.0 0.00 0.00 0.00 46 1010.9
20260507000031 71 274 12.0 24.0 0.00 0.00 0.00 45 1010.5
20260506234531 72 273 13.0 29.0 0.00 0.00 0.00 43 1010.4
20260506231530 73 273 16.0 31.0 0.00 0.00 0.00 43 1010.1
20260506230032 72 271 14.0 27.0 0.00 0.00 0.00 44 1010.1
20260506224529 74 274 14.0 25.0 0.00 0.00 0.00 43 1010.3
20260506223104 75 270 11.0 22.0 0.00 0.00 0.00 44 1010.7
20260506221530 73 267 11.0 23.0 0.00 0.00 0.00 44 1011.0
20260506220030 73 278 11.0 19.0 0.00 0.00 0.00 44 1011.1
20260506214538 75 280 11.0 22.0 0.00 0.00 0.00 43 1010.9
20260506213030 75 270 14.0 26.0 0.00 0.00 0.00 43 1010.5
20260506211604 75 274 15.0 27.0 0.00 0.00 0.00 43 1010.2
20260506210033 75 266 14.0 28.0 0.00 0.00 0.00 44 1010.3
20260506204528 74 271 13.0 24.0 0.00 0.00 0.00 45 1010.6
20260506203109 74 272 14.0 25.0 0.00 0.00 0.00 46 1010.7
20260506200029 74 273 14.0 27.0 0.00 0.00 0.00 48 1010.5
20260506194532 73 277 13.0 23.0 0.00 0.00 0.00 49 1010.6
20260506193029 73 280 11.0 21.0 0.00 0.00 0.00 50 1011.0
20260506191533 73 284 10.0 22.0 0.00 0.00 0.00 51 1011.2
20260506190032 72 277 10.0 22.0 0.00 0.00 0.00 52 1011.3
20260506184529 70 286 14.0 21.0 0.00 0.00 0.00 54 1011.3
20260506181602 70 281 14.0 25.0 0.00 0.00 0.00 55 1011.4
20260506180147 70 283 13.0 24.0 0.00 0.00 0.00 55 1011.4
20260506174528 71 285 10.0 22.0 0.00 0.00 0.00 56 1011.5
20260506173030 0 0 0.0 0.0 0.00 0.00 0.00 100
20260506171604 70 311 6.0 12.0 0.00 0.00 0.00 57 1011.6
20260506170105 69 286 7.0 15.0 0.00 0.00 0.00 58 1011.6
20260506164529 68 264 7.0 16.0 0.00 0.00 0.00 59 1011.7
20260506163032 67 275 9.0 20.0 0.00 0.00 0.00 60 1012.0
20260506161529 66 278 11.0 21.0 0.00 0.00 0.00 60 1012.0
20260506160032 66 273 15.0 24.0 0.00 0.00 0.00 59 1011.6
20260506153029 65 289 9.0 18.0 0.00 0.00 0.00 61 1011.5
20260506151529 64 293 8.0 13.0 0.00 0.00 0.00 62 1011.9
20260506150028 64 279 10.0 18.0 0.00 0.00 0.00 62 1011.9
20260506143031 63 277 11.0 19.0 0.00 0.00 0.00 63 1011.7
20260506141529 62 282 7.0 10.0 0.00 0.00 0.00 65 1011.6
20260506140033 61 285 5.0 11.0 0.00 0.00 0.00 66 1011.6
20260506134530 61 273 8.0 16.0 0.00 0.00 0.00 65 1011.4
20260506133030 60 271 8.0 20.0 0.00 0.00 0.00 66 1011.3
20260506131532 60 273 8.0 18.0 0.00 0.00 0.00 67 1011.2
20260506124533 60 266 8.0 17.0 0.00 0.00 0.00 67 1010.9
20260506123030 60 261 8.0 18.0 0.00 0.00 0.00 68 1010.7
20260506120032 60 244 7.0 10.0 0.00 0.00 0.00 68 1010.4
20260506114606 60 272 7.0 13.0 0.00 0.00 0.00 69 1010.3
20260506113028 59 267 8.0 14.0 0.00 0.00 0.00 71 1010.2
20260506111531 58 133 3.0 17.0 0.00 0.00 0.00 73 1010.2
20260506110033 58 185 1.0 5.0 0.00 0.00 0.00 72 1010.1
20260506103027 60 97 3.0 9.0 0.00 0.00 0.00 69 1009.8
20260506101529 60 30 3.0 7.0 0.00 0.00 0.00 70 1009.8
20260506100054 60 311 4.0 11.0 0.00 0.00 0.00 70 1009.7
20260506094533 59 285 6.0 14.0 0.00 0.00 0.00 72 1009.7
20260506091532 59 280 5.0 11.0 0.00 0.00 0.00 75 1009.6
20260506090033 59 276 3.0 9.0 0.00 0.00 0.00 75 1009.6
20260506084530 59 275 3.0 9.0 0.00 0.00 0.00 75 1009.5
20260506083029 59 278 0.0 6.0 0.00 0.00 0.00 75 1009.4
20260506071531 60 300 3.0 8.0 0.00 0.00 0.00 73 1008.7
20260506070110 60 291 3.0 11.0 0.00 0.00 0.00 73 1008.7
20260506061531 60 293 3.0 6.0 0.00 0.00 0.00 73 1008.4
20260506060108 60 304 5.0 11.0 0.00 0.00 0.00 72 1008.3
20260506044531 62 40 3.0 8.0 0.00 0.00 0.00 68 1007.5
20260506041531 64 23 3.0 10.0 0.00 0.00 0.00 65 1007.2
20260506040107 65 245 0.0 5.0 0.00 0.00 0.00 63 1006.9
20260506033030 65 21 3.0 8.0 0.00 0.00 0.00 63 1006.5
20260506031530 66 79 1.0 6.0 0.00 0.00 0.00 61 1006.2
20260506024605 67 304 3.0 12.0 0.00 0.00 0.00 59 1005.8
20260506023107 69 289 5.0 15.0 0.00 0.00 0.00 58 1005.7
20260506021556 70 284 6.0 14.0 0.00 0.00 0.00 56 1005.7
20260506020026 71 282 4.0 10.0 0.00 0.00 0.00 56 1005.7
20260506014531 71 289 3.0 7.0 0.00 0.00 0.00 55 1005.6
20260506013031 72 281 6.0 15.0 0.00 0.00 0.00 54 1005.4